INMARSAT 3-F2

Last updated on Sat Apr 13 2024 01:02:36 GMT+0100 (British Summer Time)

1 24307U 96053A 24103.49452810 .00000059 00000+0 00000+0 0 9994 2 24307 8.0382 61.5251 0007248 344.6147 207.1916 0.99981735100962
UTC large
Height (km)
Speed (km/s)
/
Latitude / Longitude
Inclination (degrees)
Orbital Period (minutes)
Azimuth
Elevation
Range (km)
Doppler Factor

Next 0 passes for location: London (51.5072 / 0.1276)

Sorry there are no passes over London.